Regional Weather Roundup
Issued by NWS

Home | Current Version | Previous Version | Text Only | Print | Product List | Glossary Off
Versions: 1 2 3 4 5 6 7 8 9 10 11 12 13 14 15 16 17 18 19 20 21 22 23 24 25 26 27 28 29 30 31 32 33 34 35 36 37 38 39 40 41 42 43 44 45 46 47 48 49 50

759
ASUS45 KTFX 230410
RWRMT
MONTANA REGIONAL WEATHER ROUNDUP
NATIONAL WEATHER SERVICE GREAT FALLS MT
1000 PM MDT TUE MAY 22 2018

NOTE: "FAIR" INDICATES FEW OR NO CLOUDS BELOW 12000 FEET WITH NO
SIGNIFICANT WEATHER AND/OR OBSTRUCTIONS TO VISIBILITY.

MTZ001>007-043-230500-
WEST OF THE DIVIDE

CITY           SKY/WX    TMP DP  RH WIND       PRES   REMARKS
KALISPELL      FAIR      60  48  64 CALM      29.91R
MISSOULA       FAIR      66  49  54 SE5       29.92R
BUTTE          FAIR      52  47  83 CALM      30.04R
ANACONDA         N/A     52  48  87 S5        30.02R
DEER LODGE       N/A     54  50  87 CALM      30.03R
HAMILTON         N/A     57  48  72 MISG      29.95R
PLAINS           N/A     64  52  65 CALM      29.90R
RONAN            N/A     57  46  67 E10       29.92R
$$

MTZ008-052>055-230500-
SOUTHWEST MONTANA

CITY           SKY/WX    TMP DP  RH WIND       PRES   REMARKS
BOZEMAN        MOCLDY    56  51  84 S6        30.01F
DILLON         MOCLDY    51  46  83 NE6       30.01R
ENNIS          MOCLDY    50  48  93 SE10      30.04F
W YELLOWSTONE  FAIR      46  41  81 CALM      30.04R
TWIN BRIDGES     N/A     54  46  74 N5        29.99R
$$

MTZ009-010-012-014-046-048-049-054-230500-
EAST SLOPES AND CENTRAL MONTANA

CITY           SKY/WX    TMP DP  RH WIND       PRES   REMARKS
CUT BANK       FAIR      60  46  59 SW3       29.99R
GREAT FALLS    FAIR      59  51  75 N3        29.99R
MALMSTROM AFB  FAIR      60  47  61 S5        29.98R
HELENA         FAIR      58  51  78 SW6       29.97R
AUGUSTA        MOCLDY    57  49  76 CALM      30.01S
BOWMANS CRNR   FAIR      55  46  71 N6        29.99S
CHOTEAU          N/A     61  50  67 CALM      30.01R
FAIRFIELD      MOCLDY    61  48  63 CALM      29.99R
POWER          FAIR      57  48  72 NW5       29.98S
RAYNESFORD     FAIR      53  47  79 E5        30.01R
ULM            FAIR      56  51  84 E6        29.98R
WHITE SULPHUR    N/A     46  45  93 SE5       30.02R
$$

MTZ011-013-016-021-045-047-050-051-230500-
NORTH CENTRAL MONTANA

CITY           SKY/WX    TMP DP  RH WIND       PRES   REMARKS
HAVRE          FAIR      61  52  72 W5        29.94R
LEWISTOWN      CLOUDY    58  52  80 CALM      30.02R
N BAR RANCH    CLOUDY    55  52  88 W5        30.06R
CHINOOK          N/A     63  54  72 SW5       29.93R
DENTON         MOCLDY    60  51  73 SW6       29.96
GEYSER         FAIR      53  47  80 W5        30.01R
GRASS RANGE    MOCLDY    59  51  76 CALM      29.98R
JUDITH GAP     LGT RAIN  54  50  85 CALM      30.04R
ROY            MOCLDY    66  42  42 CALM      29.98S
STANFORD       MOCLDY    54  49  82 SW8       30.03R
WINIFRED       CLOUDY    60  52  74 NW5       29.99R
$$

MTZ017>020-022>027-061-062-230500-
NORTHEAST MONTANA

CITY           SKY/WX    TMP DP  RH WIND       PRES   REMARKS
GLASGOW        FAIR      65  49  56 CALM      29.91S
GLENDIVE       CLOUDY    64  56  75 N7        29.94R
JORDAN           N/A     62  53  72 CALM      29.94S
MALTA          CLEAR     64  52  63 NW3       29.92R
SIDNEY         MOCLDY    69  51  52 NE9       29.94R
WOLF POINT     FAIR      63  52  67 CALM      29.92R
PLENTYWOOD       N/A     64  46  52 CALM      29.95R
POPLAR           N/A     63  52  67 CALM      29.92S
SCOBEY           N/A     58  39  49 N2        29.95R
$$

MTZ028>42-056>058-230500-
SOUTHCENTRAL AND SOUTHEAST MONTANA

CITY           SKY/WX    TMP DP  RH WIND       PRES   REMARKS
BAKER          FAIR      63  57  81 NE7       29.96R
BILLINGS       MOCLDY    60  55  83 N15       29.96R THUNDER
LIVINGSTON     LGT RAIN  55  51  86 E13       30.03R
MILES CITY     FAIR      65  58  78 NE8       29.91S
BIG TIMBER     MOCLDY    54  52  94 SE3       30.06S
EKALAKA          N/A     63  53  69 SE3       29.96R
FORSYTH          N/A     66  57  72 N6        29.91R
HARLOWTON      FAIR      53  51  92 CALM      30.04R
LAUREL           N/A     59  55  88 N18G25    29.95F
$$

REGIONAL REPORTS...DAKOTAS

CITY           SKY/WX    TMP DP  RH WIND       PRES   REMARKS
WILLISTON      CLOUDY    68  50  52 N8        29.94R
MINOT          MOCLDY    69  51  52 N3        29.94R
DICKINSON      FAIR      63  54  72 SE10      29.94R
BEACH          FAIR      59  55  88 NW3       29.99R
CROSBY         FAIR      61  50  67 E9        29.96R
TIOGA          CLOUDY    64  52  63 E10       29.97S
WATFORD CITY   MOCLDY    66  52  59 E8        29.94R
BISMARCK       LGT RAIN  64  60  87 N14       29.97R
GRAND FORKS    FAIR      68  56  65 SE8       29.97R
FARGO          FAIR      71  55  56 SE10      29.98R
BUFFALO SD       N/A     67  59  75 E9        29.89S
RAPID CITY     FAIR      59  56  89 NW8       29.99F
$$

REGIONAL REPORTS...WYOMING/IDAHO/WASHINGTON

CITY           SKY/WX    TMP DP  RH WIND       PRES   REMARKS
GILLETTE       MOCLDY    62  49  62 SE16      29.98R
SHERIDAN       CLOUDY    63  55  75 NW8       29.94S THUNDER
BUFFALO WY     RAIN      54  49  83 W13       30.04R
CODY           RAIN      52  49  89 S14       30.06S
YELLOWSTONE LA   N/A     45  38  76 CALM      30.12R
IDAHO FALLS    CLOUDY    59  47  64 S10       29.96R
SALMON         MOCLDY    60  47  61 CALM      29.95R
BOISE          FAIR      69  48  47 E21       29.83S
SPOKANE        FAIR      74  49  41 S6        29.83R
$$

REGIONAL REPORTS...ALBERTA

CITY           SKY/WX    TMP DP  RH WIND       PRES   REMARKS
CALGARY        PTCLDY    68  39  34 SE9       29.96R
CARDSTON         N/A     59  46  63 SW5         N/A
EDMONTON       CLEAR     64  41  42 SE5       29.90R
FORT MCMURRAY  CLEAR     73  39  29 SW6       29.81R
HIGH LEVEL     PTCLDY    77  43  29 VRB2      29.72R
LETHBRIDGE     PTCLDY    66  41  39 S9        29.95R
LLOYDMINSTER   PTCLDY    64  41  42 E3        29.93R
MEDICINE HAT   CLEAR     70  41  35 E6        29.92R
MILK RIVER       N/A     57  46  67 SE7         N/A
PEACE RIVER    PTCLDY    70  43  37 S3        29.81S
PINCHER CREEK    N/A     61  43  51 S7        29.99R
WATERTON GATE    N/A     54  43  66 SW3         N/A
$$

REGIONAL REPORTS...SASKATCHEWAN

CITY           SKY/WX    TMP DP  RH WIND       PRES   REMARKS
CORONACH         N/A     63  50  63 E7          N/A
CYPRESS HILLS    N/A     59  36  41 E3          N/A
ESTEVAN        PTCLDY    57  50  77 N5        29.95R
MOOSE JAW        N/A     63  45  51 E7          N/A
PRINCE ALBERT  PTCLDY    63  50  63 E7        29.96R
REGINA         MOCLDY    61  52  72 E3        29.96R
ROCKGLEN         N/A     64  46  52 E3          N/A
SASKATOON      PTCLDY    63  43  48 E9        29.95R
SWIFT CURRENT  PTCLDY    63  45  51 E9        29.95R
VAL MARIE        N/A     63  45  51 S8          N/A
$$




USA.gov is the U.S. government's official web portal to all federal, state and local government web resources and services.